Date String (YYYY-MM-DD hh:mm:ss) UTC,Instrument flags,absolute air pressure of the measurement (hPa),sample flow rate (lpm),inlet stack bypass flow (lpm),air temperature of the measurement (°C),ambient temperature measured by the external sensor (°C),aerosol sample conditioner tube jacket temperature (°C),OPC LED temperature (°C),internal box temperature (°C),relative humidity of the measurement (%),span deviation,mass concentration of particles derived from Lorenz-Mie calculation of OPC scattering (μg/m³),mass concentration of particles derived from Lorenz-Mie calculation of OPC scattering (μg/m³),mass concentration of particles derived from Lorenz-Mie calculation of OPC scattering (μg/m³)
DateTimeUTC,F1_M11,P_M11,Q1_M11,Q2_M11,T1_M11,T2_M11,T3_M11,T4_M11,T5_M11,U1_M11,ZSPAN_M11,X2_M11,X0_M11,X1_M11
2024-05-19 16:00:00,SystemResetWarning,0824.4,5.01,000.00,024.2,023.0,000.0,032.6,026.0,028.4,0000.0,0003.63,0008.70,0002.82
2024-05-19 16:01:00,SystemResetWarning,0824.5,5.00,000.00,024.3,023.3,000.0,032.6,026.1,028.9,0000.0,0003.64,0008.71,0002.83
2024-05-19 16:02:00,SystemResetWarning,0824.5,5.00,000.00,024.4,023.5,000.0,032.6,026.2,028.6,0000.0,0003.62,0008.70,0002.82
2024-05-19 16:03:00,SystemResetWarning,0824.5,5.00,000.00,024.4,023.7,000.0,032.6,026.3,028.6,0000.0,0003.63,0009.22,0002.83
2024-05-19 16:04:00,SystemResetWarning,0824.4,5.00,000.00,024.5,023.9,000.0,032.6,026.4,027.9,0000.0,0003.63,0009.23,0002.83
2024-05-19 16:05:00,SystemResetWarning,0824.4,4.99,000.00,024.6,024.0,000.0,032.6,026.5,028.1,0000.0,0003.58,0008.90,0002.84
2024-05-19 16:06:00,SystemResetWarning,0824.4,4.99,000.00,024.6,024.1,000.0,032.7,026.5,028.8,0000.0,0003.56,0008.73,0002.84
2024-05-19 16:07:00,SystemResetWarning,0824.4,5.00,000.00,024.7,024.2,000.0,032.7,026.6,028.4,0000.0,0003.56,0008.81,0002.83
2024-05-19 16:08:00,SystemResetWarning,0824.5,5.00,000.00,024.8,024.3,000.0,032.7,026.7,028.2,0000.0,0003.58,0008.96,0002.83
2024-05-19 16:09:00,SystemResetWarning,0824.5,5.00,000.00,024.8,024.4,000.0,032.8,026.7,027.8,0000.0,0003.60,0009.01,0002.82
2024-05-19 16:10:00,SystemResetWarning,0824.4,4.99,000.00,024.7,023.0,000.0,032.9,025.9,027.6,0000.0,0003.59,0008.10,0002.80
2024-05-19 16:11:00,SystemResetWarning,0824.4,5.00,000.00,024.3,021.4,000.0,032.9,025.0,029.3,0000.0,0003.58,0007.89,0002.80
2024-05-19 16:12:00,SystemResetWarning,0824.4,5.01,000.00,024.1,021.4,000.0,032.9,025.0,030.3,0000.0,0003.61,0007.95,0002.81
2024-05-19 16:13:00,SystemResetWarning,0824.4,5.01,000.00,024.0,021.8,000.0,032.7,025.1,030.4,0000.0,0003.61,0008.06,0002.82
2024-05-19 16:14:00,SystemResetWarning,0824.4,5.00,000.00,024.0,022.1,000.0,032.6,025.4,030.8,0000.0,0003.59,0008.04,0002.82
2024-05-19 16:15:00,SystemResetWarning,0824.4,5.00,000.00,024.1,022.5,000.0,032.6,025.6,031.7,0000.0,0003.59,0009.35,0002.82
2024-05-19 16:16:00,SystemResetWarning,0824.5,4.99,000.00,024.1,022.8,000.0,032.5,025.7,031.0,0000.0,0003.62,0010.55,0002.84
2024-05-19 16:17:00,SystemResetWarning,0824.5,5.00,000.00,024.2,023.1,000.0,032.5,025.9,031.4,0000.0,0003.65,0010.96,0002.86
2024-05-19 16:18:00,SystemResetWarning,0824.5,5.00,000.00,024.2,023.4,000.0,032.5,026.0,032.8,0000.0,0003.67,0010.82,0002.89
2024-05-19 16:19:00,SystemResetWarning,0824.5,5.00,000.00,024.3,023.6,000.0,032.5,026.1,033.1,0000.0,0003.68,0011.02,0002.92
2024-05-19 16:20:00,SystemResetWarning,0824.5,5.01,000.00,024.4,023.7,000.0,032.5,026.2,032.3,0000.0,0003.66,0011.60,0002.94
2024-05-19 16:21:00,SystemResetWarning,0824.5,4.99,000.00,024.4,023.9,000.0,032.5,026.3,030.9,0000.0,0003.70,0011.99,0002.98
2024-05-19 16:22:00,SystemResetWarning,0824.5,4.99,000.00,024.5,024.0,000.0,032.5,026.4,031.0,0000.0,0003.72,0012.31,0003.00
2024-05-19 16:23:00,SystemResetWarning,0824.5,4.99,000.00,024.6,024.1,000.0,032.6,026.5,031.6,0000.0,0003.74,0012.46,0003.02
2024-05-19 16:24:00,SystemResetWarning,0824.6,5.00,000.00,024.7,024.2,000.0,032.6,026.6,030.6,0000.0,0003.78,0013.24,0003.04
2024-05-19 16:25:00,SystemResetWarning,0824.6,5.01,000.00,024.7,024.3,000.0,032.7,026.6,030.7,0000.0,0003.86,0014.09,0003.06
2024-05-19 16:26:00,SystemResetWarning,0824.7,5.01,000.00,024.8,024.4,000.0,032.7,026.7,031.1,0000.0,0003.89,0013.50,0003.06
2024-05-19 16:27:00,SystemResetWarning,0824.6,4.99,000.00,024.8,024.1,000.0,032.8,026.5,030.9,0000.0,0003.93,0012.59,0003.05
2024-05-19 16:28:00,SystemResetWarning,0824.5,4.99,000.00,024.5,022.2,000.0,032.9,025.5,030.2,0000.0,0003.95,0012.36,0003.06
2024-05-19 16:29:00,SystemResetWarning,0824.4,5.01,000.00,024.2,021.3,000.0,032.9,024.9,031.1,0000.0,0003.96,0013.02,0003.07
2024-05-19 16:30:00,SystemResetWarning,0824.4,5.01,000.00,024.0,021.6,000.0,032.8,025.0,031.7,0000.0,0004.00,0012.81,0003.08
2024-05-19 16:31:00,SystemResetWarning,0824.4,5.00,000.00,024.0,022.0,000.0,032.7,025.3,031.8,0000.0,0004.02,0012.41,0003.08
2024-05-19 16:32:00,SystemResetWarning,0824.4,5.00,000.00,024.1,022.4,000.0,032.6,025.5,030.8,0000.0,0004.03,0012.57,0003.08
2024-05-19 16:33:00,SystemResetWarning,0824.3,5.00,000.00,024.1,022.7,000.0,032.5,025.7,031.4,0000.0,0004.03,0012.88,0003.09
2024-05-19 16:34:00,SystemResetWarning,0824.4,4.99,000.00,024.2,023.0,000.0,032.5,025.9,030.5,0000.0,0004.03,0013.28,0003.09
2024-05-19 16:35:00,SystemResetWarning,0824.4,5.00,000.00,024.2,023.3,000.0,032.5,026.0,031.1,0000.0,0004.02,0012.61,0003.08
2024-05-19 16:36:00,SystemResetWarning,0824.4,5.00,000.00,024.3,023.5,000.0,032.5,026.1,030.9,0000.0,0003.96,0012.00,0003.05
2024-05-19 16:37:00,SystemResetWarning,0824.4,5.01,000.00,024.4,023.7,000.0,032.5,026.2,030.6,0000.0,0003.93,0012.14,0003.04
2024-05-19 16:38:00,SystemResetWarning,0824.3,5.01,000.00,024.4,023.9,000.0,032.5,026.3,030.5,0000.0,0003.89,0012.49,0003.03
2024-05-19 16:39:00,SystemResetWarning,0824.3,4.99,000.00,024.5,024.0,000.0,032.5,026.4,029.4,0000.0,0003.86,0012.69,0003.02
2024-05-19 16:40:00,SystemResetWarning,0824.3,4.99,000.00,024.6,024.1,000.0,032.6,026.5,029.7,0000.0,0003.82,0012.06,0002.99
2024-05-19 16:41:00,SystemResetWarning,0824.4,5.00,000.00,024.7,024.2,000.0,032.6,026.6,029.9,0000.0,0003.84,0012.06,0003.00
2024-05-19 16:42:00,SystemResetWarning,0824.4,5.00,000.00,024.7,023.8,000.0,032.7,026.3,029.9,0000.0,0003.81,0012.37,0002.98
2024-05-19 16:43:00,SystemResetWarning,0824.3,5.00,000.00,024.4,022.0,000.0,032.8,025.3,030.9,0000.0,0003.76,0012.11,0002.98
2024-05-19 16:44:00,SystemResetWarning,0824.3,5.01,000.00,024.1,021.2,000.0,032.8,024.9,030.7,0000.0,0003.76,0012.06,0002.97
2024-05-19 16:45:00,SystemResetWarning,0824.3,5.02,000.00,023.9,021.6,000.0,032.7,025.0,030.7,0000.0,0003.73,0012.18,0002.96
2024-05-19 16:46:00,SystemResetWarning,0824.3,4.99,000.00,023.9,021.9,000.0,032.6,025.2,031.6,0000.0,0003.69,0012.40,0002.96
2024-05-19 16:47:00,SystemResetWarning,0824.3,5.00,000.00,024.0,022.3,000.0,032.5,025.5,030.8,0000.0,0003.68,0011.60,0002.98
2024-05-19 16:48:00,SystemResetWarning,0824.3,5.01,000.00,024.0,022.7,000.0,032.4,025.6,031.1,0000.0,0003.69,0011.00,0003.00
2024-05-19 16:49:00,SystemResetWarning,0824.3,5.00,000.00,024.1,023.0,000.0,032.4,025.8,030.8,0000.0,0003.70,0010.73,0003.02
2024-05-19 16:50:00,SystemResetWarning,0824.2,5.00,000.00,024.2,023.2,000.0,032.4,026.0,030.2,0000.0,0003.69,0010.43,0003.00
2024-05-19 16:51:00,SystemResetWarning,0824.1,5.00,000.00,024.2,023.4,000.0,032.4,026.1,030.1,0000.0,0003.70,0011.13,0003.00
2024-05-19 16:52:00,SystemResetWarning,0824.2,5.00,000.00,024.3,023.6,000.0,032.4,026.2,030.4,0000.0,0003.65,0011.60,0002.99
2024-05-19 16:53:00,SystemResetWarning,0824.1,5.00,000.00,024.4,023.8,000.0,032.4,026.3,030.5,0000.0,0003.66,0011.45,0002.98
2024-05-19 16:54:00,SystemResetWarning,0824.1,5.00,000.00,024.5,024.0,000.0,032.4,026.4,030.1,0000.0,0003.69,0012.51,0002.98
2024-05-19 16:55:00,SystemResetWarning,0824.2,5.00,000.00,024.5,024.1,000.0,032.5,026.4,030.4,0000.0,0003.71,0012.47,0002.98
2024-05-19 16:56:00,SystemResetWarning,0824.2,5.01,000.00,024.6,024.2,000.0,032.5,026.5,029.9,0000.0,0003.76,0012.40,0002.97
2024-05-19 16:57:00,SystemResetWarning,0824.2,4.99,000.00,024.6,023.7,000.0,032.6,026.2,030.1,0000.0,0003.76,0012.55,0002.96
2024-05-19 16:58:00,SystemResetWarning,0824.0,4.99,000.00,024.3,021.9,000.0,032.7,025.3,032.1,0000.0,0003.77,0012.52,0002.97
2024-05-19 16:59:00,SystemResetWarning,0823.9,5.01,000.00,024.0,021.2,000.0,032.7,024.8,031.5,0000.0,0003.76,0012.39,0002.98
